Satellite-Ground Cal/Val Site Overpasses Predictions

Prediction of Satellite NPP Overpassing Cal/Val Site: Antarctic Dome C

Ground Cal/Val Site Location: Latitude: -75.10, Longitude: 123.35; Satellite-Ground Site NADIR distance within 100 km.

Table of predicted overpasses for the next 14.0 days since TLE Epoch: 12/20/2019
Interval Starting Time Ending Time Minimum Distance Time Minimum Distance (km)
1 12/21/2019 14:54:40 12/21/2019 14:55:09 12/21/2019 14:54:54 20.03
2 12/22/2019 14:35:57 12/22/2019 14:36:11 12/22/2019 14:36:04 87.14
3 12/23/2019 07:37:29 12/23/2019 07:37:56 12/23/2019 07:37:43 36.36
4 12/24/2019 07:18:43 12/24/2019 07:19:03 12/24/2019 07:18:53 73.79
5 12/26/2019 15:00:55 12/26/2019 15:01:19 12/26/2019 15:01:07 56.69
6 12/27/2019 14:42:05 12/27/2019 14:42:30 12/27/2019 14:42:17 52.45
7 12/28/2019 07:43:46 12/28/2019 07:44:06 12/28/2019 07:43:56 71.36
8 12/29/2019 07:24:52 12/29/2019 07:25:19 12/29/2019 07:25:05 36.65
9 12/31/2019 15:07:16 12/31/2019 15:07:25 12/31/2019 15:07:20 94.25
10 01/01/2020 14:48:16 01/01/2020 14:48:45 01/01/2020 14:48:30 17.10


NCC Satellite Cal/Val Overpasses Prediction Service
